CES726 VHHH-ZSPD

Flight info

Callsign CES726
Flight time N/A
Altitude 39000
Route LEKEN V601 DOTMI/K0854S1130 A470 LJG B221 SHZ W58 BK BK81A
Aircraft A20N/M-SDE2E3FGHIRWXY/LB1

Departure

Time 2026-05-05 12:28
Airport Hong Kong International Airport (VHHH)

Arrival

Time N/A
Airport Shanghai Pudong International Airport (ZSPD)
Time Latitude Longitude Altitude Speed Heading
2026-05-05 11:35 22.31387 113.92702 35 ft 0 kts 206°
2026-05-05 12:05 22.31398 113.92708 35 ft 2 kts 206°
2026-05-05 12:05 22.31412 113.92715 35 ft 2 kts 206°
2026-05-05 12:05 22.31426 113.92722 35 ft 2 kts 206°
2026-05-05 12:05 22.31439 113.92730 35 ft 2 kts 206°
2026-05-05 12:06 22.31452 113.92737 35 ft 2 kts 217°
2026-05-05 12:06 22.31464 113.92748 35 ft 2 kts 225°
2026-05-05 12:06 22.31473 113.92760 35 ft 2 kts 235°
2026-05-05 12:06 22.31481 113.92774 35 ft 2 kts 244°
2026-05-05 12:07 22.31486 113.92788 35 ft 2 kts 253°
2026-05-05 12:07 22.31491 113.92804 35 ft 2 kts 252°
2026-05-05 12:07 22.31495 113.92819 35 ft 2 kts 252°
2026-05-05 12:07 22.31497 113.92826 35 ft 0 kts 252°
2026-05-05 12:10 22.31497 113.92824 35 ft 1 kts 252°
2026-05-05 12:10 22.31491 113.92805 35 ft 4 kts 252°
2026-05-05 12:10 22.31489 113.92770 35 ft 5 kts 283°
2026-05-05 12:10 22.31492 113.92758 35 ft 1 kts 292°
2026-05-05 12:11 22.31498 113.92744 35 ft 2 kts 294°
2026-05-05 12:11 22.31510 113.92716 35 ft 5 kts 296°
2026-05-05 12:11 22.31533 113.92665 35 ft 8 kts 296°
2026-05-05 12:11 22.31561 113.92603 35 ft 9 kts 296°
2026-05-05 12:12 22.31593 113.92532 35 ft 11 kts 295°
2026-05-05 12:12 22.31630 113.92453 35 ft 12 kts 297°
2026-05-05 12:12 22.31642 113.92363 35 ft 13 kts 252°
2026-05-05 12:12 22.31616 113.92284 35 ft 0 kts 251°
2026-05-05 12:13 22.31615 113.92278 35 ft 1 kts 252°
2026-05-05 12:13 22.31608 113.92258 35 ft 4 kts 251°
2026-05-05 12:13 22.31597 113.92223 35 ft 6 kts 251°
2026-05-05 12:13 22.31581 113.92173 35 ft 8 kts 250°
2026-05-05 12:14 22.31556 113.92098 35 ft 12 kts 246°
2026-05-05 12:14 22.31483 113.92074 35 ft 12 kts 161°
2026-05-05 12:14 22.31396 113.92107 35 ft 13 kts 161°
2026-05-05 12:14 22.31304 113.92142 35 ft 14 kts 160°
2026-05-05 12:15 22.31208 113.92177 35 ft 14 kts 162°
2026-05-05 12:15 22.31109 113.92214 35 ft 15 kts 160°
2026-05-05 12:15 22.31006 113.92252 35 ft 15 kts 161°
2026-05-05 12:15 22.30902 113.92291 35 ft 16 kts 161°
2026-05-05 12:16 22.30795 113.92331 35 ft 16 kts 161°
2026-05-05 12:16 22.30689 113.92370 35 ft 12 kts 162°
2026-05-05 12:16 22.30623 113.92334 35 ft 12 kts 247°
2026-05-05 12:16 22.30593 113.92242 35 ft 13 kts 250°
2026-05-05 12:17 22.30561 113.92144 35 ft 14 kts 251°
2026-05-05 12:17 22.30527 113.92041 34 ft 14 kts 250°
2026-05-05 12:17 22.30493 113.91933 35 ft 15 kts 251°
2026-05-05 12:17 22.30457 113.91821 35 ft 16 kts 251°
2026-05-05 12:18 22.30420 113.91706 34 ft 16 kts 250°
2026-05-05 12:18 22.30382 113.91587 35 ft 16 kts 251°
2026-05-05 12:18 22.30341 113.91467 35 ft 17 kts 249°
2026-05-05 12:18 22.30304 113.91346 35 ft 17 kts 252°
2026-05-05 12:19 22.30277 113.91261 34 ft 0 kts 251°
2026-05-05 12:21 22.30277 113.91260 34 ft 0 kts 251°
2026-05-05 12:21 22.30269 113.91236 35 ft 5 kts 251°
2026-05-05 12:21 22.30253 113.91187 35 ft 8 kts 251°
2026-05-05 12:22 22.30230 113.91117 35 ft 11 kts 250°
2026-05-05 12:22 22.30201 113.91029 35 ft 12 kts 250°
2026-05-05 12:22 22.30171 113.90934 35 ft 13 kts 251°
2026-05-05 12:22 22.30139 113.90834 35 ft 14 kts 251°
2026-05-05 12:23 22.30105 113.90728 35 ft 15 kts 250°
2026-05-05 12:23 22.30069 113.90619 34 ft 15 kts 251°
2026-05-05 12:23 22.30033 113.90505 35 ft 16 kts 251°
2026-05-05 12:23 22.29995 113.90388 35 ft 16 kts 251°
2026-05-05 12:24 22.29957 113.90269 35 ft 17 kts 251°
2026-05-05 12:24 22.29917 113.90147 35 ft 17 kts 250°
2026-05-05 12:24 22.29878 113.90023 35 ft 17 kts 251°
2026-05-05 12:24 22.29839 113.89900 35 ft 16 kts 251°
2026-05-05 12:25 22.29806 113.89799 35 ft 11 kts 245°
2026-05-05 12:25 22.29757 113.89760 35 ft 6 kts 179°
2026-05-05 12:25 22.29736 113.89766 35 ft 0 kts 155°
2026-05-05 12:26 22.29728 113.89770 35 ft 3 kts 158°
2026-05-05 12:26 22.29694 113.89784 35 ft 7 kts 160°
2026-05-05 12:26 22.29634 113.89806 35 ft 7 kts 161°
2026-05-05 12:26 22.29633 113.89846 35 ft 5 kts 73°
2026-05-05 12:27 22.29650 113.89901 35 ft 15 kts 71°
2026-05-05 12:27 22.29771 113.90278 35 ft 91 kts 71°
2026-05-05 12:27 22.30055 113.91157 36 ft 153 kts 71°
2026-05-05 12:27 22.30425 113.92303 534 ft 163 kts 71°
2026-05-05 12:28 22.30786 113.93417 1352 ft 159 kts 72°
2026-05-05 12:28 22.31138 113.94514 2085 ft 158 kts 72°
2026-05-05 12:28 22.31520 113.95686 2530 ft 174 kts 72°
2026-05-05 12:28 22.31938 113.96982 2975 ft 192 kts 73°
2026-05-05 12:29 22.32396 113.98405 3415 ft 211 kts 73°
2026-05-05 12:29 22.32901 113.99981 3932 ft 228 kts 72°
2026-05-05 12:29 22.33419 114.01596 4770 ft 231 kts 72°
2026-05-05 12:29 22.33850 114.03265 5559 ft 235 kts 86°
2026-05-05 12:30 22.33719 114.05015 6338 ft 238 kts 109°
2026-05-05 12:30 22.33012 114.06579 7089 ft 240 kts 130°
2026-05-05 12:30 22.31778 114.07823 7855 ft 243 kts 149°
2026-05-05 12:30 22.30222 114.08597 8397 ft 254 kts 168°
2026-05-05 12:31 22.28463 114.08816 9072 ft 259 kts 182°
2026-05-05 12:31 22.26610 114.08786 9601 ft 274 kts 184°
2026-05-05 12:31 22.24640 114.08730 10082 ft 291 kts 184°
2026-05-05 12:31 22.22570 114.08686 10585 ft 305 kts 184°
2026-05-05 12:32 22.20377 114.08652 10972 ft 324 kts 183°
2026-05-05 12:32 22.18058 114.08910 11287 ft 347 kts 165°
2026-05-05 12:32 22.15855 114.10157 11675 ft 367 kts 142°
2026-05-05 12:32 22.14208 114.12286 12284 ft 376 kts 120°
2026-05-05 12:33 22.13025 114.14810 12969 ft 380 kts 116°
2026-05-05 12:33 22.11860 114.17386 13587 ft 385 kts 117°
2026-05-05 12:33 22.10667 114.19974 14199 ft 390 kts 117°
2026-05-05 12:33 22.09440 114.22584 14780 ft 394 kts 118°
2026-05-05 12:34 22.08031 114.25130 15331 ft 398 kts 128°
2026-05-05 12:34 22.06194 114.27362 15887 ft 399 kts 139°
2026-05-05 12:34 22.04029 114.29235 16437 ft 400 kts 146°
2026-05-05 12:34 22.01756 114.30992 16970 ft 404 kts 147°
2026-05-05 12:35 21.99453 114.32756 17482 ft 408 kts 147°
2026-05-05 12:35 21.97131 114.34555 18014 ft 412 kts 147°
2026-05-05 12:35 21.94810 114.36373 18541 ft 415 kts 147°
2026-05-05 12:35 21.92464 114.38219 19073 ft 418 kts 147°
2026-05-05 12:36 21.90102 114.40079 19587 ft 421 kts 147°
2026-05-05 12:36 21.87768 114.42009 20088 ft 426 kts 140°
2026-05-05 12:36 21.85956 114.44569 20525 ft 437 kts 118°
2026-05-05 12:36 21.85067 114.47701 21001 ft 442 kts 96°
2026-05-05 12:37 21.85125 114.50997 21493 ft 444 kts 84°
2026-05-05 12:37 21.85442 114.54307 21960 ft 447 kts 83°
2026-05-05 12:37 21.85761 114.57637 22402 ft 451 kts 83°
2026-05-05 12:37 21.86059 114.61003 22860 ft 454 kts 84°
2026-05-05 12:38 21.86339 114.64397 23293 ft 458 kts 84°
2026-05-05 12:38 21.86608 114.67823 23696 ft 461 kts 84°
2026-05-05 12:38 21.86873 114.71273 24099 ft 465 kts 84°
2026-05-05 12:38 21.87134 114.74754 24502 ft 469 kts 84°
2026-05-05 12:39 21.87397 114.78266 24871 ft 473 kts 84°
2026-05-05 12:39 21.87663 114.81808 25247 ft 476 kts 84°
2026-05-05 12:39 21.87928 114.85371 25618 ft 480 kts 84°
2026-05-05 12:39 21.88195 114.88962 25982 ft 483 kts 84°
2026-05-05 12:40 21.88283 114.90159 26096 ft 485 kts 84°